This is the latest recevied weather packets stored in our database for station/object SQ7IQO. If no packets are shown the sender has not sent any weather packets the latest 10 day(s).
| Time | Temp. | Humidity | Pressure | Rain* | Wind** | Luminosity | Snow |
|---|---|---|---|---|---|---|---|
| 1787841218 | 25.56° C | 40% | 1023.3 hPa | 0 mm | 0 m/s | - | - |
| 1787841158 | 25.56° C | 43% | 1023.3 hPa | 0 mm | 0 m/s | - | - |
| 1787841098 | 25° C | 43% | 1023.3 hPa | 0 mm | 0 m/s | - | - |
| 1787841038 | 25° C | 44% | 1023.3 hPa | 0 mm | 0 m/s | - | - |
| 1787840978 | 25° C | 41% | 1023.3 hPa | 0 mm | 0 m/s | - | - |
| 1787840918 | 25° C | 42% | 1023.3 hPa | 0 mm | 0 m/s | - | - |
| 1787840858 | 24.44° C | 44% | 1023.3 hPa | 0 mm | 0 m/s | - | - |
| 1787840798 | 24.44° C | 41% | 1023.3 hPa | 0 mm | 0 m/s | - | - |
| 1787840738 | 24.44° C | 44% | 1023.3 hPa | 0 mm | 0.45 m/s, ° | - | - |
| 1787840678 | 24.44° C | 44% | 1023.3 hPa | 0 mm | 0 m/s | - | - |
| 1787840618 | 24.44° C | 43% | 1023.3 hPa | 0 mm | 0 m/s | - | - |
| 1787840558 | 23.89° C | 44% | 1023.3 hPa | 0 mm | 0 m/s | - | - |
| 1787840498 | 23.89° C | 44% | 1023.3 hPa | 0 mm | 0 m/s | - | - |
| 1787840438 | 23.89° C | 43% | 1023.3 hPa | 0 mm | 0.45 m/s, ° | - | - |
| 1787840378 | 24.44° C | 43% | 1023.3 hPa | 0 mm | 0.89 m/s, ° | - | - |
| 1787840318 | 24.44° C | 42% | 1023.2 hPa | 0 mm | 0 m/s | - | - |
| 1787840258 | 24.44° C | 43% | 1023.2 hPa | 0 mm | 0.45 m/s, ° | - | - |
| 1787840198 | 24.44° C | 42% | 1023.3 hPa | 0 mm | 0.89 m/s, ° | - | - |
| 1787840138 | 24.44° C | 42% | 1023.2 hPa | 0 mm | 0.45 m/s, ° | - | - |
| 1787840078 | 25° C | 42% | 1023.2 hPa | 0 mm | 0 m/s | - | - |
| 1787840018 | 24.44° C | 45% | 1023.3 hPa | 0 mm | 0 m/s | - | - |
| 1787839958 | 24.44° C | 45% | 1023.3 hPa | 0 mm | 0 m/s | - | - |
| 1787839898 | 25° C | 41% | 1023.3 hPa | 0 mm | 0.45 m/s, ° | - | - |
| 1787839838 | 25° C | 41% | 1023.3 hPa | 0 mm | 0 m/s | - | - |
| 1787839778 | 25° C | 41% | 1023.3 hPa | 0 mm | 0 m/s | - | - |
* Rain latest hour (hover to see other rain measurements)
** Current wind speed in m/s (hover to see current wind gust speed)